Airfield :
LOGIN :

Register | Disclaimer

   EN    FR    IT 

 










Legend :    VFR   Marginal VFR   IFR   Intensive IFR   Very Intensive IFR
Visi :
Ceiling :
>= 8 km
>= 3000ft
5 to 8 km
1000 to 3000 ft
1500m to 5 km
500 to 1000 ft
800 to 1500m
200 to 500 ft
< 800m
< 200 ft
Symbols :   Thunderstorms  Fog  Heavy snow  Heavy precipitations  Wind > 20 kt
SIGMETs :     Misc.  Thunderstorms  Icing  Turbulence  Mountain Waves  Volcanic Ashes






- Airport Elevation : 645 ft
- IATA code : DLE


LFGJ - Dole Tavaux

CURRENT METAR :
  • 071530Z AUTO 05005KT 360V090 CAVOK 34/11 Q1017 NOSIG

EXPIRED METARs :
  • 071500Z AUTO 10004KT 030V170 CAVOK 34/11 Q1017 NOSIG
  • 071430Z AUTO VRB03KT CAVOK 34/12 Q1017 NOSIG
  • 071400Z AUTO 08007KT 030V110 CAVOK 34/12 Q1017 NOSIG
  • 071330Z AUTO 08005KT 040V180 CAVOK 33/11 Q1017 NOSIG
  • 071300Z AUTO VRB03KT CAVOK 33/11 Q1018 NOSIG

TAF TAF LFGJ
Valid from the 07 at 15:00 until the 08 at 00:00 UTC


071400Z 0715/0724 06005KT CAVOK



MET'MAP, your aeronautical weather chart ! - Copyright ORBIFLY December 2007 - Disclaimer

ORBIFLY MET'MAP TEAM :

Programming & Development : Alexandra Zaïnal
Concept & original design : Baudouin d'Aumeries
Assistance for programming : Marc-Olivier Méhu
Technical & hardware support : Manuel Goepfert

Contact : metmap@orbifly.com




SOURCES & CREDITS :

   NOAA